TimeMST,TemperatureF,Dew PointF,Humidity,Sea Level PressureIn,VisibilityMPH,Wind Direction,Wind SpeedMPH,Gust SpeedMPH,PrecipitationIn,Events,Conditions,WindDirDegrees,DateUTC
12:53 AM,8.1,3.9,83,29.95,10.0,SW,16.1,-,N/A,,Scattered Clouds,230,2013-01-29 07:53:00
1:53 AM,10.0,6.1,84,29.91,10.0,WSW,16.1,-,N/A,,Clear,240,2013-01-29 08:53:00
2:53 AM,10.9,8.1,88,29.91,10.0,SW,18.4,-,N/A,,Scattered Clouds,220,2013-01-29 09:53:00
3:53 AM,10.9,7.0,84,29.90,10.0,SW,17.3,-,N/A,,Mostly Cloudy,230,2013-01-29 10:53:00
4:53 AM,10.9,8.1,88,29.89,10.0,SW,19.6,-,N/A,,Mostly Cloudy,220,2013-01-29 11:53:00
5:53 AM,10.0,7.0,87,29.91,10.0,SW,17.3,-,N/A,,Mostly Cloudy,230,2013-01-29 12:53:00
6:53 AM,10.0,7.0,87,29.93,9.0,SW,17.3,-,N/A,,Scattered Clouds,230,2013-01-29 13:53:00
7:53 AM,10.9,8.1,88,29.91,9.0,SW,15.0,-,N/A,,Mostly Cloudy,220,2013-01-29 14:53:00
8:01 AM,10.4,8.6,92,29.72,7.0,SW,15.0,-,N/A,,Mostly Cloudy,220,2013-01-29 15:01:00
8:53 AM,12.0,9.0,88,29.94,10.0,SW,11.5,-,N/A,,Overcast,220,2013-01-29 15:53:00
9:53 AM,12.9,10.9,92,29.94,1.5,SSW,6.9,-,0.00,Snow,Light Snow,200,2013-01-29 16:53:00
10:00 AM,14.0,10.4,86,29.75,2.0,SSW,8.1,-,0.00,Snow,Light Snow,200,2013-01-29 17:00:00
10:22 AM,14.0,12.2,93,29.76,5.0,SW,8.1,-,0.00,,Overcast,220,2013-01-29 17:22:00
10:53 AM,15.1,12.0,88,29.97,2.5,SW,5.8,-,0.00,Snow,Light Snow,220,2013-01-29 17:53:00
11:10 AM,15.8,12.2,86,29.78,4.0,SW,8.1,-,0.00,Snow,Light Snow,220,2013-01-29 18:10:00
11:53 AM,16.0,12.9,88,29.98,10.0,SW,8.1,-,0.00,,Mostly Cloudy,230,2013-01-29 18:53:00
12:53 PM,19.0,14.0,81,29.96,10.0,SW,8.1,-,N/A,,Clear,230,2013-01-29 19:53:00
1:53 PM,21.9,12.0,66,29.95,10.0,NNW,10.4,-,0.03,,Overcast,330,2013-01-29 20:53:00
2:53 PM,21.9,12.0,66,29.97,10.0,NNW,13.8,-,0.01,,Scattered Clouds,330,2013-01-29 21:53:00
3:53 PM,19.9,10.0,65,30.01,10.0,North,10.4,-,N/A,,Scattered Clouds,350,2013-01-29 22:53:00
4:53 PM,16.0,10.0,77,30.07,10.0,NW,6.9,-,N/A,,Partly Cloudy,320,2013-01-29 23:53:00
5:53 PM,14.0,8.1,77,30.13,10.0,NW,8.1,-,N/A,,Mostly Cloudy,310,2013-01-30 00:53:00
6:53 PM,14.0,6.1,71,30.16,10.0,WNW,5.8,-,N/A,,Mostly Cloudy,300,2013-01-30 01:53:00
7:53 PM,12.0,5.0,73,30.20,10.0,SW,3.5,-,N/A,,Overcast,230,2013-01-30 02:53:00
8:53 PM,12.0,6.1,77,30.22,10.0,WSW,4.6,-,N/A,,Overcast,240,2013-01-30 03:53:00
9:53 PM,12.9,7.0,77,30.22,10.0,WSW,6.9,-,N/A,,Overcast,240,2013-01-30 04:53:00
10:53 PM,14.0,9.0,80,30.19,10.0,SW,10.4,-,N/A,,Overcast,230,2013-01-30 05:53:00
11:53 PM,14.0,9.0,80,30.21,10.0,WSW,11.5,-,N/A,,Overcast,240,2013-01-30 06:53:00